Location: Peebles
(55.6412°N, 3.1714°W)
Time: 14:06:43
(UTC+01:00)

SJ 16-02 - Pass Details

Date: 26 September 2021
Orbit: 605 x 617 km, 75.0° (Epoch: 18 October)

Event Time Altitude Azimuth Distance (km) Brightness Sun altitude
Rises 23:10:09 0° 267° (W) 2,891 5.2 -31.3°
Reaches altitude 10° 23:13:27 10° 293° (WNW) 1,990 4.6 -31.5°
Maximum altitude 23:15:47 14° 325° (NW) 1,744 4.4 -31.7°
Drops below altitude 10° 23:18:08 10° 357° (N) 1,995 4.6 -31.9°
Sets 23:21:27 0° 23° (NNE) 2,904 5.3 -32.1°
